[[{"header":{"parameterUnit":"m.s-1","parameterCategory":1,"la1":30.2991,"la2":30.254,"lo1":-89.0895,"lo2":-89.0444,"dy":0.0017,"dx":0.0017,"nx":28,"ny":28,"refTime":"2024-07-13T03:00:00:Z","depth":0,"parameterNumber":2,"parameterNumberName":"U-component_of_WINDS"},"data":[0,0,0,0,0,0,0,0,0,0,0,0,0,0,0,0,0,0,0,0,0,0,0,0,0,0,0,0,0,0,0,0,0,0,0,0,0,0,0,0,0,0,0,0,0,0,0,0,0,0,0,0,0,0,0,0,0,0,5.8314,5.8314,0,5.8313,5.8313,5.8313,5.8146,5.8141,5.8137,5.8133,5.813,5.8134,5.8138,0,0,0,0,0,0,0,0,0,0,0,0,0,5.8171,5.8174,5.8314,5.8314,5.8314,5.8313,5.8313,5.8313,5.8146,5.8141,5.8136,5.8131,5.8129,5.8133,5.8138,0,0,0,0,0,0,0,0,0,0,0,0,0,5.8208,5.8175,5.8314,5.8231,5.8223,5.8313,5.8313,5.8313,5.8147,5.8141,5.8134,5.8128,5.8127,5.8133,5.8139,5.8307,0,0,5.8157,5.816,0,0,0,0,0,0,0,0,5.8206,5.8213,5.8243,5.8237,5.8229,5.8223,5.8261,5.8311,5.8149,5.8176,5.8133,5.8125,5.8166,5.8168,5.8182,5.8307,5.8307,5.8158,5.8161,5.8164,5.8166,0,0,0,0,0,0,0,5.8203,5.8212,5.8313,5.8244,5.8235,5.8193,5.8191,5.827,5.8208,5.8173,5.8161,5.8163,5.8161,5.8177,5.8181,5.8307,5.8158,5.8163,5.8167,5.8169,5.8567,5.8573,0,0,0,0,0,0,5.8212,5.8211,5.8313,5.8313,5.8201,5.8201,5.8199,5.8231,5.8207,5.8197,5.8169,5.8156,5.817,5.8174,5.818,5.8373,5.8164,5.8169,5.8173,5.856,5.8568,5.8576,0,0,0,0,0,0,5.821,5.8223,5.8313,5.8259,5.8267,5.821,5.8248,5.8235,5.825,5.8203,5.8191,5.8197,5.8165,5.8172,5.8276,5.837,5.8172,5.8178,5.8552,5.8562,5.8572,5.8761,0,0,0,0,0,0,5.8207,5.8223,5.8287,5.8262,5.8271,5.841,5.8254,5.8239,5.8261,5.8244,5.8226,5.8217,5.816,5.8268,5.8282,5.8375,5.8182,5.8543,5.8556,5.8569,5.8746,5.8777,5.8803,0,0,0,0,0,5.8202,5.834,5.8291,5.8304,5.8349,5.8416,5.8421,5.8353,5.827,5.8333,5.8302,5.8218,5.8359,5.828,5.8295,5.8391,5.8536,5.8553,5.8568,5.8733,5.8771,5.8802,0,0,0,0,0,0,5.8377,5.8335,5.828,5.8415,5.842,5.8388,5.8464,5.8396,5.8424,5.8407,5.8321,5.8319,5.8436,5.8424,5.8337,5.8551,5.8433,5.8452,5.8554,5.8589,5.8617,5.8615,5.8187,0,0,0,0,0,5.8432,5.849,5.8451,5.8573,5.8579,5.8522,5.8549,5.8496,5.8498,5.8499,5.8476,5.8482,5.8526,5.8558,5.8597,5.8745,5.8737,5.8819,5.8847,5.8871,5.8887,5.8962,5.8996,5.8627,5.8627,5.8627,0,0,5.8545,5.8529,5.8571,5.8608,5.8606,5.8667,5.8525,5.8596,5.864,5.851,5.8605,5.859,5.859,5.8717,5.8771,5.871,5.8988,5.8891,5.891,5.8913,5.8981,5.9016,5.9047,5.8638,5.8636,5.8634,0,0,5.878,5.8776,5.8875,5.8877,5.8876,5.8838,5.8862,5.8841,5.8825,5.8921,5.8824,5.8875,5.8956,5.8958,5.8971,5.9209,5.9131,5.9225,5.9371,5.9445,5.9474,5.95,5.9581,5.9612,5.9242,5.9243,5.9243,0,5.8919,5.9008,5.8936,5.9013,5.9031,5.8918,5.9017,5.9022,5.9035,5.9049,5.8982,5.9079,5.9072,5.9196,5.9254,5.9269,5.9292,5.9224,5.9476,5.9501,5.9523,5.96,5.9631,5.9254,5.9252,5.9251,5.925,0,5.9177,5.9241,5.9322,5.9336,5.9364,5.9452,5.9393,5.943,5.9376,5.9345,5.9443,5.943,5.9463,5.949,5.9439,5.9607,5.9569,5.9492,5.9369,5.9571,5.9641,5.967,5.9269,5.9265,5.9262,5.9259,0,0,5.9519,5.9494,5.9524,5.9528,5.952,5.9567,5.9651,5.9684,5.9716,5.9729,5.9795,5.9867,5.9794,5.9808,5.9756,5.9822,6.0007,5.9734,5.9733,5.9782,6.0189,6.0244,6.028,5.9958,5.9963,5.9968,6.0187,0,5.9743,5.9883,5.9821,5.9967,6.0023,5.9918,5.999,5.9992,5.9966,6.001,5.9981,6.0031,5.9933,5.994,6.0001,5.9972,6.0087,5.9956,6.0015,6.0018,6.0014,6.0317,6.0376,6.0583,6.0215,6.022,6.0223,0,6.0022,6.0046,6.0198,6.0179,6.02,6.0266,6.029,6.0335,6.0335,6.0312,6.0329,6.0262,6.0341,6.0225,6.0331,6.0243,6.0265,6.0255,6.0261,6.026,6.0129,6.032,6.0648,6.0678,6.0266,6.0263,6.026,0,6.025,6.0322,6.0421,6.0429,6.041,6.0458,6.0453,6.0447,6.0471,6.0494,6.0508,6.054,6.0556,6.0583,6.0526,6.0447,6.064,6.0519,6.062,6.0621,6.0661,6.0658,6.0993,6.0684,6.0683,6.0683,6.0682,0,6.0504,6.06,6.0523,6.0583,6.0687,6.0617,6.0721,6.0704,6.0701,6.0755,6.0668,6.0721,6.0646,6.0691,6.0649,6.0742,6.0751,6.0732,6.0719,6.0737,6.0739,6.0746,6.0729,6.0691,6.0689,6.0687,6.0686,0,6.0774,6.0727,6.0827,6.0802,6.0798,6.0876,6.0853,6.0908,6.0877,6.0947,6.096,6.0911,6.096,6.0908,6.0954,6.0925,6.1049,6.1017,6.1048,6.1037,6.114,6.1129,6.1487,6.1529,6.1198,6.1201,6.1204,0,6.0936,6.1007,6.099,6.102,6.102,6.1071,6.1095,6.1029,6.1057,6.1064,6.1117,6.116,6.1189,6.1273,6.1241,6.1275,6.124,6.1364,6.1244,6.126,6.1237,6.1231,6.1236,6.1386,6.139,6.1393,6.1396,0,6.1228,6.1201,6.1239,6.1269,6.13,6.1321,6.1335,6.1365,6.1297,6.1333,6.1382,6.1406,6.1453,6.1495,6.152,6.1513,6.1443,6.1435,6.1459,6.1476,6.1489,6.1479,6.1109,6.1425,6.1422,6.142,6.1419,6.1417,6.1445,6.1502,6.1499,6.1544,6.1548,6.1563,6.1612,6.1588,6.1629,6.1661,6.1621,6.1681,6.168,6.1707,6.1709,6.1755,6.1702,6.1739,6.1747,6.1756,6.1769,6.1487,6.176,6.1759,6.1758,6.1758,6.1757,0,6.1727,6.1721,6.1763,6.1785,6.1821,6.1754,6.1767,6.18,6.1854,6.186,6.1891,6.1948,6.1989,6.1962,6.1996,6.2038,6.2006,6.2049,6.2042,6.2041,6.1816,6.1789,6.2073,6.2073,6.2073,6.2073,6.2073,6.2073,6.1878,6.1971,6.1945,6.2038,6.2031,6.2089,6.2101,6.2115,6.2119,6.2186,6.2219,6.2202,6.2194,6.2227,6.2262,6.2252,6.2267,6.232,6.23,6.2089,6.2057,6.2027,6.2002,6.2326,6.2326,6.252,6.2522,6.2523]},{"header":{"parameterUnit":"m.s-1","parameterCategory":1,"la1":30.2991,"la2":30.254,"lo1":-89.0895,"lo2":-89.0444,"dy":0.0017,"dx":0.0017,"nx":28,"ny":28,"refTime":"2024-07-13T03:00:00:Z","depth":0,"parameterNumber":3,"parameterNumberName":"V-component_of_WINDS"},"data":[0,0,0,0,0,0,0,0,0,0,0,0,0,0,0,0,0,0,0,0,0,0,0,0,0,0,0,0,0,0,0,0,0,0,0,0,0,0,0,0,0,0,0,0,0,0,0,0,0,0,0,0,0,0,0,0,0,0,3.3854,3.3854,0,3.3923,3.3924,3.3925,3.3941,3.3941,3.394,3.394,3.4008,3.401,3.4012,0,0,0,0,0,0,0,0,0,0,0,0,0,3.373,3.3733,3.3854,3.3854,3.3855,3.3923,3.3924,3.3925,3.3941,3.3941,3.394,3.394,3.4007,3.401,3.4012,0,0,0,0,0,0,0,0,0,0,0,0,0,3.379,3.3733,3.3853,3.3872,3.3874,3.3923,3.3924,3.3925,3.3941,3.3941,3.394,3.3939,3.4006,3.4009,3.4013,3.4047,0,0,3.4023,3.4024,0,0,0,0,0,0,0,0,3.3787,3.3795,3.3868,3.3871,3.3873,3.3923,3.3906,3.3966,3.3942,3.3916,3.394,3.3939,3.398,3.3985,3.4,3.4051,3.4053,3.4023,3.4025,3.4027,3.4028,0,0,0,0,0,0,0,3.3783,3.3792,3.3881,3.3869,3.3872,3.3875,3.3883,3.3917,3.3951,3.3918,3.3919,3.3928,3.3981,3.3997,3.4002,3.4054,3.4023,3.4026,3.4028,3.403,3.4135,3.4136,0,0,0,0,0,0,3.3776,3.3788,3.3879,3.3883,3.3828,3.3878,3.3887,3.3908,3.395,3.3956,3.3928,3.3928,3.3991,3.3998,3.4004,3.4046,3.4027,3.403,3.4032,3.4135,3.4136,3.4136,0,0,0,0,0,0,3.3773,3.3784,3.3876,3.3836,3.3848,3.3881,3.3904,3.3909,3.3925,3.3958,3.3964,3.3938,3.3991,3.3999,3.4036,3.4049,3.4031,3.4034,3.4134,3.4135,3.4136,3.4132,0,0,0,0,0,0,3.377,3.3783,3.3797,3.3836,3.385,3.3909,3.3905,3.3911,3.3931,3.3932,3.3969,3.3974,3.3991,3.4031,3.404,3.4053,3.4037,3.4133,3.4134,3.4136,3.4131,3.4133,3.4134,0,0,0,0,0,3.3765,3.3793,3.3798,3.3809,3.3869,3.3909,3.3917,3.3937,3.3932,3.3946,3.3967,3.3973,3.4046,3.4035,3.4045,3.4059,3.4132,3.4134,3.4135,3.413,3.4132,3.4134,0,0,0,0,0,0,3.3753,3.3798,3.3805,3.3846,3.3874,3.3912,3.393,3.3938,3.3967,3.3966,3.3988,3.3997,3.4032,3.4049,3.4036,3.4094,3.4089,3.4093,3.4081,3.4084,3.4085,3.408,3.404,0,0,0,0,0,3.3756,3.3786,3.3823,3.3856,3.387,3.3898,3.3916,3.3928,3.3958,3.3969,3.3993,3.402,3.4049,3.4067,3.4096,3.4134,3.4141,3.4148,3.415,3.4151,3.4154,3.4174,3.4177,3.4142,3.4142,3.4142,0,0,3.3761,3.3789,3.3807,3.3854,3.3877,3.3906,3.3907,3.3938,3.396,3.3973,3.401,3.4028,3.406,3.4097,3.4114,3.4113,3.4165,3.4154,3.4154,3.4156,3.4176,3.4179,3.4182,3.4143,3.4143,3.4143,0,0,3.3785,3.381,3.3839,3.3862,3.3897,3.3916,3.3923,3.396,3.3973,3.401,3.4021,3.4045,3.4095,3.4117,3.4134,3.4165,3.4171,3.4174,3.4182,3.4201,3.4204,3.4206,3.4216,3.4219,3.4177,3.4177,3.4177,0,3.3786,3.3831,3.3853,3.3884,3.3904,3.3918,3.3947,3.3968,3.4011,3.4023,3.4021,3.4083,3.4105,3.4147,3.4155,3.4169,3.4176,3.4169,3.4202,3.4205,3.4207,3.4217,3.422,3.4177,3.4177,3.4177,3.4177,0,3.3831,3.3862,3.3881,3.3922,3.3945,3.3974,3.3999,3.4019,3.4029,3.4047,3.4084,3.4111,3.4145,3.4156,3.4166,3.4199,3.4196,3.4198,3.4193,3.421,3.4219,3.4223,3.4177,3.4177,3.4177,3.4177,0,0,3.3849,3.3901,3.3908,3.3926,3.3966,3.399,3.4019,3.4053,3.4069,3.4097,3.4121,3.4163,3.4164,3.4184,3.4197,3.4214,3.4235,3.4213,3.4214,3.4215,3.427,3.4268,3.4272,3.4239,3.424,3.4241,3.4267,0,3.3876,3.3931,3.3951,3.3995,3.4023,3.4037,3.4063,3.4089,3.4106,3.4132,3.415,3.4179,3.4179,3.4191,3.4208,3.4228,3.4246,3.4227,3.426,3.4261,3.4251,3.4277,3.4276,3.43,3.4271,3.4272,3.4272,0,3.3916,3.3945,3.3992,3.4027,3.404,3.4063,3.4095,3.412,3.4149,3.416,3.4182,3.4194,3.4223,3.4217,3.4257,3.4244,3.4259,3.427,3.4272,3.4275,3.4267,3.428,3.4308,3.4311,3.4278,3.4278,3.4277,0,3.3922,3.3974,3.4009,3.4024,3.4066,3.4081,3.4099,3.4128,3.4147,3.4175,3.4187,3.4217,3.4234,3.4256,3.4275,3.4269,3.4313,3.4309,3.4322,3.4321,3.433,3.4329,3.4359,3.4341,3.4341,3.4341,3.4341,0,3.395,3.3978,3.4012,3.4033,3.4064,3.4087,3.4116,3.4135,3.416,3.4184,3.4198,3.422,3.4244,3.4269,3.4283,3.4314,3.4321,3.433,3.4333,3.4328,3.4327,3.4338,3.4336,3.4342,3.4342,3.4342,3.4342,0,3.3963,3.3987,3.4025,3.4062,3.4072,3.4093,3.4124,3.4144,3.4162,3.4192,3.42,3.4228,3.4258,3.4279,3.4317,3.4327,3.4359,3.4363,3.4349,3.4351,3.4363,3.4361,3.44,3.4406,3.4385,3.4385,3.4385,0,3.3979,3.4001,3.404,3.4057,3.4076,3.4104,3.4123,3.4145,3.4165,3.4199,3.4215,3.4246,3.4271,3.4317,3.434,3.4369,3.4373,3.4384,3.4377,3.4371,3.4371,3.4369,3.4371,3.4385,3.4385,3.4385,3.4385,0,3.4004,3.4014,3.4042,3.4074,3.4097,3.4123,3.4149,3.4162,3.4189,3.421,3.4241,3.4261,3.4299,3.4329,3.436,3.4377,3.4385,3.4388,3.4392,3.4387,3.4377,3.4381,3.4351,3.4387,3.4386,3.4386,3.4386,3.4386,3.4018,3.4037,3.4068,3.4098,3.412,3.4144,3.4165,3.4186,3.4212,3.4246,3.4257,3.4289,3.4316,3.4359,3.4376,3.44,3.4399,3.4406,3.4408,3.4409,3.4408,3.4374,3.4406,3.4406,3.4406,3.4406,3.4406,0,3.4042,3.4063,3.409,3.4127,3.415,3.4157,3.4186,3.4205,3.4233,3.4258,3.4284,3.4318,3.4347,3.4372,3.4401,3.4416,3.442,3.4422,3.4421,3.4425,3.4407,3.44,3.4418,3.4418,3.4418,3.4418,3.4418,3.4418,3.4058,3.4091,3.4105,3.4149,3.4169,3.4201,3.4216,3.4238,3.4258,3.4297,3.4321,3.4338,3.4363,3.4394,3.442,3.4426,3.4436,3.4437,3.4445,3.4428,3.4426,3.4424,3.4418,3.444,3.444,3.446,3.446,3.446]}]]